This is the latest recevied weather packets stored in our database for station/object OK1FET-4. If no packets are shown the sender has not sent any weather packets the latest 10 day(s).
| Time | Temp. | Humidity | Pressure | Rain* | Wind** | Luminosity | Snow |
|---|---|---|---|---|---|---|---|
| 1777646973 | 25° C | 30% | 1027 hPa | - | - | - | - |
| 1777646671 | 25° C | 30% | 1027 hPa | - | - | - | - |
| 1777646369 | 25° C | 30% | 1027 hPa | - | - | - | - |
| 1777646068 | 25° C | 30% | 1027.1 hPa | - | - | - | - |
| 1777645766 | 23.89° C | 30% | 1027.2 hPa | - | - | - | - |
| 1777645465 | 25.56° C | 29% | 1027.1 hPa | - | - | - | - |
| 1777645163 | 25° C | 29% | 1027.2 hPa | - | - | - | - |
| 1777644861 | 25° C | 29% | 1027.2 hPa | - | - | - | - |
| 1777644559 | 25.56° C | 29% | 1027.2 hPa | - | - | - | - |
| 1777644257 | 26.11° C | 29% | 1027.2 hPa | - | - | - | - |
| 1777643956 | 26.11° C | 29% | 1027.2 hPa | - | - | - | - |
| 1777643654 | 25.56° C | 29% | 1027.3 hPa | - | - | - | - |
| 1777643352 | 24.44° C | 30% | 1027.3 hPa | - | - | - | - |
| 1777643050 | 25° C | 29% | 1027.2 hPa | - | - | - | - |
| 1777642749 | 25° C | 29% | 1027.5 hPa | - | - | - | - |
| 1777642447 | 25.56° C | 29% | 1027.5 hPa | - | - | - | - |
| 1777642145 | 25° C | 30% | 1027.5 hPa | - | - | - | - |
| 1777641844 | 23.89° C | 30% | 1027.6 hPa | - | - | - | - |
| 1777641542 | 23.89° C | 29% | 1027.6 hPa | - | - | - | - |
| 1777641240 | 25° C | 29% | 1027.7 hPa | - | - | - | - |
| 1777640939 | 25° C | 29% | 1027.7 hPa | - | - | - | - |
| 1777640637 | 25° C | 29% | 1027.8 hPa | - | - | - | - |
| 1777640335 | 25° C | 29% | 1027.8 hPa | - | - | - | - |
| 1777640033 | 26.11° C | 28% | 1027.8 hPa | - | - | - | - |
| 1777639731 | 25.56° C | 29% | 1028 hPa | - | - | - | - |
* Rain since midnight (hover to see other rain measurements)
** Current wind speed in m/s (hover to see current wind gust speed)